Flag Weather past 2 weeks in Inglewood, California, U.S.A.

Now
63 °F

Sunny.


Feels Like: 63 °F
Forecast: 56 / 68 °F
Wind: 5 mph from Northwest

Location: Hawthorne Municipal Airport

Current Time: Nov 21, 2014 at 8:41:27 AM

Latest Report: Nov 21, 2014 at 7:53 AM


Visibility: 10 mi

Pressure: 29.96 "Hg

Humidity: 63%

Dew point: 50 °F

Location of InglewoodLocation

Historic Weather in Inglewood — Graph

°F

Inglewood temperature yesterday

Maximum temperature yesterday: 69 °F (at 11:53 AM)
Minimum temperature yesterday: 56 °F (at 4:53 AM)
Average temperature yesterday: 63 °F

Past Weeks' High & Low Weather Summary

 TemperatureHumidityPressure
High89 °F (Nov 6, 11:53 AM)94% (Nov 9, 3:53 AM)30.17 "Hg (Nov 9, 3:53 AM)
Low56 °F (Nov 17, 12:53 AM)6% (Nov 17, 12:53 PM)29.82 "Hg (Nov 9, 5:02 PM)
Average66 °F59%30.02 "Hg
* Reported Nov 6 6:53 AM — Nov 21 6:53 AM, Inglewood, Weather by CustomWeather, © 2014

Note: Actual official high and low records may vary slightly from our data, if they occured in-between our weather recording intervals... More about our weather records

Advertising

Inglewood weather history for previous 24 hours

 ConditionsComfort  
Time TempWeatherWind HumidityBarometerVisibility
6:53 AM
Nov 21
59 °FSunny.3 mph72%29.95 "Hg10 mi
5:53 AM58 °FClear.No wind78%29.94 "Hg10 mi
4:53 AM58 °FClear.No wind81%29.93 "Hg10 mi
3:53 AM59 °FPassing clouds.No wind81%29.94 "Hg10 mi
2:53 AM60 °FClear.No wind78%29.94 "Hg10 mi
1:53 AM62 °FPassing clouds.6 mph75%29.95 "Hg10 mi
12:53 AM63 °FMostly cloudy.7 mph75%29.96 "Hg10 mi
11:53 PM
Nov 20
62 °FPassing clouds.6 mph78%29.98 "Hg10 mi
10:53 PM64 °FMostly cloudy.No wind73%29.97 "Hg10 mi
9:53 PM65 °FMostly cloudy.No wind70%29.99 "Hg10 mi
8:53 PM64 °FOvercast.8 mph73%29.98 "Hg10 mi
7:53 PM65 °FPassing clouds.10 mph73%29.99 "Hg10 mi
6:53 PM65 °FOvercast.9 mph76%29.99 "Hg10 mi
6:00 PM65 °FClear.5 mph76%30.00 "Hg10 mi
4:53 PM65 °FPassing clouds.9 mph76%30.01 "Hg10 mi
3:53 PM65 °FPartly sunny.7 mph76%29.99 "Hg10 mi
2:53 PM67 °FOvercast.10 mph68%30.02 "Hg10 mi
1:53 PM68 °FScattered clouds.9 mph61%30.02 "Hg10 mi
12:53 PM68 °FSunny.9 mph61%30.04 "Hg10 mi
11:53 AM69 °FPartly sunny.8 mph55%30.06 "Hg10 mi
10:53 AM67 °FPassing clouds.No wind55%30.09 "Hg10 mi
9:53 AM67 °FSunny.5 mph59%30.10 "Hg10 mi
8:53 AM64 °FSunny.No wind56%30.11 "Hg10 mi
Weather by CustomWeather, © 2014

See weather overviewHow to use our weather pages